Flag for U.S.A. Weather past 2 weeks in Unalaska, Alaska, U.S.A.

Now
58 °F

More clouds than sun.


Feels Like: 57 °F
Forecast: 60 / 64 °F
Wind: 7 mph from South

Location: Dutch Harbor

Current Time: Aug 31, 2015 at 5:57:57 PM

Latest Report: Aug 31, 2015 at 4:56 PM


Visibility: 10 mi

Pressure: 30.08 "Hg

Humidity: 78%

Dew point: 51 °F

Location of UnalaskaLocation

Historic Weather in Unalaska — Graph

°F

Unalaska temperature yesterday

Maximum temperature yesterday: 56 °F (at 5:56 PM)
Minimum temperature yesterday: 50 °F (at 8:56 AM)
Average temperature yesterday: 53 °F

Past Weeks' High & Low Weather Summary

 TemperatureHumidityPressure
High71 °F (Aug 26, 2:56 PM)96% (Aug 17, 3:56 AM)30.53 "Hg (Aug 17, 3:56 AM)
Low45 °F (Aug 20, 4:56 AM)60% (Aug 25, 8:56 PM)29.78 "Hg (Aug 17, 12:56 AM)
Average55 °F78%30.26 "Hg
* Reported Aug 16 4:56 PM — Aug 31 4:56 PM, Unalaska, Weather by CustomWeather, © 2015

Note: Actual official high and low records may vary slightly from our data, if they occured in-between our weather recording intervals... More about our weather records

Advertising

Unalaska weather history for previous 24 hours

 ConditionsComfort  
Time TempWeatherWind HumidityBarometerVisibility
4:56 PM
Mon, Aug 31
58 °FMore clouds than sun.7 mph78%30.08 "Hg10 mi
3:56 PM57 °FMostly cloudy.8 mph83%30.08 "Hg10 mi
2:56 PM57 °FLight rain. More clouds than sun.9 mph81%30.09 "Hg10 mi
12:56 PM57 °FOvercast.8 mph81%30.09 "Hg10 mi
11:56 AM56 °FLow clouds.8 mph84%30.09 "Hg10 mi
10:56 AM55 °FPartly sunny.8 mph83%30.07 "Hg10 mi
9:56 AM54 °FMostly cloudy.8 mph86%30.07 "Hg10 mi
8:56 AM54 °FMostly cloudy.7 mph86%30.06 "Hg10 mi
7:56 AM52 °FLow clouds.3 mph89%30.07 "Hg10 mi
6:56 AM55 °FOvercast.5 mph83%30.06 "Hg10 mi
5:56 AM54 °FMostly cloudy.8 mph86%30.06 "Hg10 mi
4:56 AM54 °FMostly cloudy.10 mph83%30.05 "Hg10 mi
3:56 AM53 °FOvercast.10 mph86%30.06 "Hg10 mi
2:56 AM53 °FOvercast.8 mph86%30.06 "Hg10 mi
1:56 AM53 °FMostly cloudy.8 mph86%30.06 "Hg10 mi
12:56 AM53 °FOvercast.6 mph86%30.05 "Hg10 mi
11:56 PM
Sun, Aug 30
54 °FOvercast.5 mph83%30.04 "Hg10 mi
10:56 PM54 °FOvercast.8 mph83%30.03 "Hg10 mi
9:56 PM53 °FOvercast.9 mph86%30.01 "Hg10 mi
8:56 PM55 °FOvercast.9 mph80%29.99 "Hg10 mi
7:56 PM55 °FOvercast.10 mph80%29.98 "Hg10 mi
6:56 PM55 °FOvercast.10 mph80%29.98 "Hg10 mi
5:56 PM56 °FMostly cloudy.10 mph77%29.99 "Hg10 mi
Weather by CustomWeather, © 2015

See weather overviewHow to use our weather pages